Date String (YYYY-MM-DD hh:mm:ss) UTC,Instrument flags,absolute air pressure of the measurement (hPa),sample flow rate (lpm),inlet stack bypass flow (lpm),air temperature of the measurement (°C),ambient temperature measured by the external sensor (°C),aerosol sample conditioner tube jacket temperature (°C),OPC LED temperature (°C),internal box temperature (°C),relative humidity of the measurement (%),span deviation,mass concentration of particles derived from Lorenz-Mie calculation of OPC scattering (μg/m³),mass concentration of particles derived from Lorenz-Mie calculation of OPC scattering (μg/m³),mass concentration of particles derived from Lorenz-Mie calculation of OPC scattering (μg/m³)
DateTimeUTC,F1_M11,P_M11,Q1_M11,Q2_M11,T1_M11,T2_M11,T3_M11,T4_M11,T5_M11,U1_M11,ZSPAN_M11,X2_M11,X0_M11,X1_M11
2023-10-17 15:00:00,SystemResetWarning,0830.2,5.00,000.00,029.4,028.2,000.0,037.8,031.0,14.8,0000.0,0002.92,0011.18,0001.74
2023-10-17 15:01:00,SystemResetWarning,0830.2,4.99,000.00,029.4,028.3,000.0,037.8,031.1,14.6,0000.0,0002.87,0011.05,0001.73
2023-10-17 15:02:00,SystemResetWarning,0830.2,5.00,000.00,029.4,028.3,000.0,037.8,031.1,14.7,0000.0,0002.89,0011.11,0001.74
2023-10-17 15:03:00,SystemResetWarning,0830.3,4.98,000.00,029.5,028.3,000.0,037.8,031.1,14.4,0000.0,0002.93,0010.39,0001.74
2023-10-17 15:04:00,SystemResetWarning,0830.3,5.01,000.00,029.5,028.3,000.0,037.8,031.1,13.8,0000.0,0002.91,0009.25,0001.73
2023-10-17 15:05:00,SystemResetWarning,0830.2,5.01,000.00,029.5,028.3,000.0,037.9,031.1,13.6,0000.0,0002.94,0009.23,0001.73
2023-10-17 15:06:00,SystemResetWarning,0830.2,5.00,000.00,029.5,028.4,000.0,037.9,031.2,13.6,0000.0,0003.02,0009.37,0001.74
2023-10-17 15:07:00,SystemResetWarning,0830.2,4.99,000.00,029.5,028.4,000.0,037.9,031.2,13.5,0000.0,0003.07,0009.46,0001.74
2023-10-17 15:08:00,SystemResetWarning,0830.2,4.99,000.00,029.6,028.4,000.0,037.9,031.2,13.7,0000.0,0003.08,0009.45,0001.75
2023-10-17 15:09:00,SystemResetWarning,0830.2,5.00,000.00,029.6,028.4,000.0,037.9,031.2,13.9,0000.0,0003.10,0009.81,0001.74
2023-10-17 15:10:00,SystemResetWarning,0830.2,5.01,000.00,029.6,028.4,000.0,037.9,031.2,13.9,0000.0,0002.79,0009.10,0001.72
2023-10-17 15:11:00,SystemResetWarning,0830.2,5.00,000.00,029.6,028.5,000.0,037.9,031.3,13.8,0000.0,0002.62,0008.64,0001.69
2023-10-17 15:12:00,SystemResetWarning,0830.2,4.98,000.00,029.6,028.5,000.0,038.0,031.3,15.8,0000.0,0002.71,0009.01,0001.71
2023-10-17 15:13:00,SystemResetWarning,0830.2,4.99,000.00,029.7,028.5,000.0,038.0,031.3,15.9,0000.0,0002.68,0008.82,0001.71
2023-10-17 15:14:00,SystemResetWarning,0830.3,5.00,000.00,029.7,027.7,000.0,038.0,031.4,15.4,0000.0,0002.67,0008.88,0001.72
2023-10-17 15:15:00,SystemResetWarning,0830.2,5.00,000.00,029.6,025.8,000.0,037.9,031.1,15.4,0000.0,0002.71,0008.99,0001.72
2023-10-17 15:16:00,SystemResetWarning,0830.1,5.01,000.00,029.5,024.9,000.0,037.8,030.9,16.1,0000.0,0002.73,0009.06,0001.71
2023-10-17 15:17:00,SystemResetWarning,0830.1,5.02,000.00,029.4,025.0,000.0,037.8,030.7,15.2,0000.0,0002.68,0009.14,0001.69
2023-10-17 15:18:00,SystemResetWarning,0830.1,5.00,000.00,029.3,025.4,000.0,037.8,030.6,14.4,0000.0,0002.58,0008.65,0001.67
2023-10-17 15:19:00,SystemResetWarning,0830.1,5.00,000.00,029.2,025.8,000.0,037.8,030.6,14.6,0000.0,0002.60,0008.83,0001.66
2023-10-17 15:20:00,SystemResetWarning,0830.1,5.01,000.00,029.1,026.2,000.0,037.8,030.6,14.7,0000.0,0002.58,0008.79,0001.67
2023-10-17 15:21:00,SystemResetWarning,0830.1,5.00,000.00,029.1,026.5,000.0,037.8,030.6,14.4,0000.0,0002.54,0008.12,0001.67
2023-10-17 15:22:00,SystemResetWarning,0830.1,5.00,000.00,029.1,026.8,000.0,037.7,030.6,14.3,0000.0,0002.38,0006.43,0001.67
2023-10-17 15:23:00,SystemResetWarning,0830.1,5.00,000.00,029.1,027.0,000.0,037.7,030.7,14.7,0000.0,0002.30,0005.49,0001.66
2023-10-17 15:24:00,SystemResetWarning,0830.2,5.00,000.00,029.1,027.2,000.0,037.7,030.7,14.6,0000.0,0002.32,0005.47,0001.68
2023-10-17 15:25:00,SystemResetWarning,0830.2,5.01,000.00,029.1,027.4,000.0,037.7,030.7,14.9,0000.0,0002.38,0005.66,0001.68
2023-10-17 15:26:00,SystemResetWarning,0830.2,5.00,000.00,029.1,027.5,000.0,037.7,030.8,15.5,0000.0,0002.40,0006.93,0001.70
2023-10-17 15:27:00,SystemResetWarning,0830.3,5.00,000.00,029.2,027.6,000.0,037.7,030.8,15.3,0000.0,0002.47,0007.63,0001.73
2023-10-17 15:28:00,SystemResetWarning,0830.2,5.00,000.00,029.2,027.7,000.0,037.7,030.8,15.1,0000.0,0002.60,0007.99,0001.76
2023-10-17 15:29:00,SystemResetWarning,0830.2,5.00,000.00,029.2,027.8,000.0,037.7,030.9,14.4,0000.0,0002.79,0008.54,0001.79
2023-10-17 15:30:00,SystemResetWarning,0830.3,5.00,000.00,029.2,027.9,000.0,037.7,030.9,13.8,0000.0,0002.88,0009.47,0001.81
2023-10-17 15:31:00,SystemResetWarning,0830.3,5.00,000.00,029.3,028.0,000.0,037.7,030.9,13.9,0000.0,0002.92,0009.93,0001.81
2023-10-17 15:32:00,SystemResetWarning,0830.3,5.00,000.00,029.3,028.0,000.0,037.7,031.0,13.9,0000.0,0002.95,0009.97,0001.82
2023-10-17 15:33:00,SystemResetWarning,0830.3,5.00,000.00,029.3,028.1,000.0,037.7,031.0,13.8,0000.0,0003.01,0010.69,0001.83
2023-10-17 15:34:00,SystemResetWarning,0830.3,4.98,000.00,029.3,028.1,000.0,037.8,031.0,13.9,0000.0,0003.06,0011.20,0001.84
2023-10-17 15:35:00,SystemResetWarning,0830.2,5.00,000.00,029.4,028.2,000.0,037.8,031.0,14.1,0000.0,0003.10,0012.02,0001.85
2023-10-17 15:36:00,SystemResetWarning,0830.2,5.01,000.00,029.4,028.2,000.0,037.8,031.1,14.2,0000.0,0003.11,0012.03,0001.85
2023-10-17 15:37:00,SystemResetWarning,0830.2,5.00,000.00,029.4,028.3,000.0,037.8,031.1,13.9,0000.0,0003.14,0011.58,0001.86
2023-10-17 15:38:00,SystemResetWarning,0830.2,4.99,000.00,029.4,028.3,000.0,037.8,031.1,14.0,0000.0,0003.14,0011.00,0001.85
2023-10-17 15:39:00,SystemResetWarning,0830.2,5.00,000.00,029.5,027.3,000.0,037.8,031.1,14.2,0000.0,0003.15,0010.80,0001.86
2023-10-17 15:40:00,SystemResetWarning,0830.2,5.01,000.00,029.4,025.5,000.0,037.7,030.9,14.5,0000.0,0003.05,0010.88,0001.86
2023-10-17 15:41:00,SystemResetWarning,0830.3,5.00,000.00,029.3,025.2,000.0,037.7,030.8,14.8,0000.0,0002.97,0009.98,0001.86
2023-10-17 15:42:00,SystemResetWarning,0830.2,5.01,000.00,029.2,025.5,000.0,037.7,030.6,15.1,0000.0,0002.93,0009.21,0001.86
2023-10-17 15:43:00,SystemResetWarning,0830.3,5.00,000.00,029.1,025.8,000.0,037.7,030.5,15.9,0000.0,0002.95,0009.25,0001.86
2023-10-17 15:44:00,SystemResetWarning,0830.3,4.99,000.00,029.1,026.2,000.0,037.7,030.6,15.4,0000.0,0002.98,0009.01,0001.87
2023-10-17 15:45:00,SystemResetWarning,0830.2,5.00,000.00,029.0,026.5,000.0,037.7,030.6,15.7,0000.0,0002.92,0008.31,0001.86
2023-10-17 15:46:00,SystemResetWarning,0830.3,5.00,000.00,029.0,026.8,000.0,037.7,030.7,15.8,0000.0,0002.86,0007.81,0001.84
2023-10-17 15:47:00,SystemResetWarning,0830.3,5.01,000.00,029.0,027.0,000.0,037.7,030.7,16.1,0000.0,0002.83,0007.86,0001.84
2023-10-17 15:48:00,SystemResetWarning,0830.3,5.00,000.00,029.1,027.2,000.0,037.6,030.7,15.9,0000.0,0002.81,0008.06,0001.84
2023-10-17 15:49:00,SystemResetWarning,0830.3,5.00,000.00,029.1,027.4,000.0,037.6,030.8,16.3,0000.0,0002.82,0010.10,0001.83
2023-10-17 15:50:00,SystemResetWarning,0830.3,5.00,000.00,029.1,027.6,000.0,037.6,030.8,16.6,0000.0,0002.82,0013.28,0001.81
2023-10-17 15:51:00,SystemResetWarning,0830.3,4.99,000.00,029.1,027.7,000.0,037.6,030.8,17.0,0000.0,0002.84,0013.27,0001.81
2023-10-17 15:52:00,SystemResetWarning,0830.3,4.99,000.00,029.2,027.8,000.0,037.7,030.9,16.8,0000.0,0002.88,0013.91,0001.82
2023-10-17 15:53:00,SystemResetWarning,0830.3,5.01,000.00,029.2,027.9,000.0,037.7,030.9,16.9,0000.0,0002.89,0014.36,0001.82
2023-10-17 15:54:00,SystemResetWarning,0830.4,5.00,000.00,029.2,028.0,000.0,037.7,030.9,16.4,0000.0,0002.94,0014.84,0001.82
2023-10-17 15:55:00,SystemResetWarning,0830.4,4.98,000.00,029.3,028.1,000.0,037.7,031.0,15.9,0000.0,0002.88,0014.84,0001.82
2023-10-17 15:56:00,SystemResetWarning,0830.3,5.00,000.00,029.3,028.2,000.0,037.7,031.0,16.0,0000.0,0002.92,0015.61,0001.84
2023-10-17 15:57:00,SystemResetWarning,0830.3,5.00,000.00,029.3,027.3,000.0,037.7,031.0,16.2,0000.0,0003.01,0015.75,0001.84
2023-10-17 15:58:00,SystemResetWarning,0830.3,5.00,000.00,029.2,025.5,000.0,037.6,030.8,15.9,0000.0,0003.03,0016.04,0001.85
2023-10-17 15:59:00,SystemResetWarning,0830.3,5.00,000.00,029.1,025.1,000.0,037.5,030.7,15.6,0000.0,0003.00,0016.01,0001.83
